| time (UTC) | temp F | wind direction | speed MPH | gust MPH | rain 1hr in | rain 24hr in | rain mn in | humidity % | barometer mb |
| 20260831030525 | 61 | 0 | 0.0 | 2.0 | 0.00 | 0.00 | 0.00 | 59 | 1014.3 |
| 20260831030050 | 61 | 0 | 0.0 | 2.0 | 0.00 | 0.00 | 0.00 | 58 | 1014.2 |
| 20260831025528 | 62 | 0 | 0.0 | 2.0 | 0.00 | 0.00 | 0.00 | 58 | 1014.3 |
| 20260831025028 | 62 | 0 | 0.0 | 2.0 | 0.00 | 0.00 | 0.00 | 56 | 1014.2 |
| 20260831024546 | 62 | 0 | 0.0 | 2.0 | 0.00 | 0.00 | 0.00 | 55 | 1014.0 |
| 20260831024028 | 63 | 55 | 0.0 | 2.0 | 0.00 | 0.00 | 0.00 | 55 | 1014.0 |
| 20260831023528 | 63 | 0 | 0.0 | 3.0 | 0.00 | 0.00 | 0.00 | 55 | 1013.9 |
| 20260831023107 | 63 | 0 | 0.0 | 3.0 | 0.00 | 0.00 | 0.00 | 55 | 1013.7 |
| 20260831022528 | 63 | 55 | 0.0 | 2.0 | 0.00 | 0.00 | 0.00 | 55 | 1013.7 |
| 20260831022027 | 64 | 0 | 0.0 | 2.0 | 0.00 | 0.00 | 0.00 | 53 | 1013.7 |
| 20260831021553 | 64 | 0 | 0.0 | 0.0 | 0.00 | 0.00 | 0.00 | 53 | 1013.6 |
| 20260831021031 | 65 | 0 | 0.0 | 0.0 | 0.00 | 0.00 | 0.00 | 53 | 1013.5 |
| 20260831020527 | 66 | 0 | 0.0 | 0.0 | 0.00 | 0.00 | 0.00 | 52 | 1013.4 |
| 20260831020109 | 66 | 0 | 0.0 | 0.0 | 0.00 | 0.00 | 0.00 | 51 | 1013.4 |
| 20260831015527 | 67 | 0 | 0.0 | 0.0 | 0.00 | 0.00 | 0.00 | 50 | 1013.3 |
| 20260831015025 | 68 | 0 | 0.0 | 0.0 | 0.00 | 0.00 | 0.00 | 50 | 1013.3 |
| 20260831014549 | 69 | 0 | 0.0 | 1.0 | 0.00 | 0.00 | 0.00 | 50 | 1013.2 |
| 20260831014028 | 69 | 0 | 0.0 | 2.0 | 0.00 | 0.00 | 0.00 | 49 | 1013.1 |
| 20260831013529 | 71 | 0 | 0.0 | 2.0 | 0.00 | 0.00 | 0.00 | 49 | 1013.2 |
| 20260831013047 | 72 | 0 | 0.0 | 0.0 | 0.00 | 0.00 | 0.00 | 44 | 1013.1 |
| 20260831012527 | 73 | 0 | 0.0 | 0.0 | 0.00 | 0.00 | 0.00 | 42 | 1013.1 |
| 20260831012028 | 73 | 0 | 0.0 | 0.0 | 0.00 | 0.00 | 0.00 | 43 | 1013.0 |
| 20260831011556 | 74 | 0 | 0.0 | 0.0 | 0.00 | 0.00 | 0.00 | 45 | 1012.9 |
| 20260831011028 | 74 | 0 | 0.0 | 0.0 | 0.00 | 0.00 | 0.00 | 42 | 1012.9 |
| 20260831010526 | 75 | 0 | 0.0 | 0.0 | 0.00 | 0.00 | 0.00 | 45 | 1013.1 |
| 20260831010052 | 76 | 0 | 0.0 | 0.0 | 0.00 | 0.00 | 0.00 | 43 | 1013.0 |
| 20260831005528 | 76 | 0 | 0.0 | 0.0 | 0.00 | 0.00 | 0.00 | 41 | 1012.8 |
| 20260831005027 | 76 | 0 | 0.0 | 0.0 | 0.00 | 0.00 | 0.00 | 41 | 1012.8 |
| 20260831004549 | 76 | 0 | 0.0 | 0.0 | 0.00 | 0.00 | 0.00 | 41 | 1012.8 |
| 20260831004028 | 76 | 0 | 0.0 | 0.0 | 0.00 | 0.00 | 0.00 | 41 | 1013.0 |
| 20260831003528 | 77 | 0 | 0.0 | 1.0 | 0.00 | 0.00 | 0.00 | 40 | 1012.9 |
| 20260831003050 | 77 | 0 | 0.0 | 2.0 | 0.00 | 0.00 | 0.00 | 44 | 1013.0 |
| 20260831002524 | 76 | 295 | 0.0 | 2.0 | 0.00 | 0.00 | 0.00 | 40 | 1013.0 |
| 20260831002033 | 76 | 294 | 0.0 | 2.0 | 0.00 | 0.00 | 0.00 | 41 | 1012.9 |
| 20260831001549 | 76 | 0 | 0.0 | 2.0 | 0.00 | 0.00 | 0.00 | 44 | 1013.0 |
| 20260831001028 | 76 | 311 | 0.0 | 3.0 | 0.00 | 0.00 | 0.00 | 43 | 1013.0 |
| 20260831000528 | 75 | 0 | 0.0 | 3.0 | 0.00 | 0.00 | 0.00 | 43 | 1013.0 |
| 20260831000048 | 76 | 340 | 1.0 | 3.0 | 0.00 | 0.00 | 0.00 | 42 | 1012.8 |
| 20260830235527 | 76 | 239 | 0.0 | 2.0 | 0.00 | 0.00 | 0.00 | 41 | 1012.8 |
| 20260830235027 | 76 | 0 | 1.0 | 2.0 | 0.00 | 0.00 | 0.00 | 45 | 1012.8 |
| 20260830234548 | 76 | 0 | 0.0 | 3.0 | 0.00 | 0.00 | 0.00 | 43 | 1012.7 |
| 20260830234027 | 75 | 0 | 0.0 | 3.0 | 0.00 | 0.00 | 0.00 | 46 | 1012.8 |
| 20260830233524 | 75 | 340 | 0.0 | 3.0 | 0.00 | 0.00 | 0.00 | 44 | 1012.8 |
| 20260830233051 | 74 | 0 | 1.0 | 5.0 | 0.00 | 0.00 | 0.00 | 40 | 1013.0 |
| 20260830232527 | 74 | 24 | 2.0 | 6.0 | 0.00 | 0.00 | 0.00 | 43 | 1012.9 |
| 20260830232027 | 75 | 359 | 2.0 | 6.0 | 0.00 | 0.00 | 0.00 | 43 | 1012.8 |
| 20260830231546 | 75 | 0 | 1.0 | 6.0 | 0.00 | 0.00 | 0.00 | 44 | 1012.8 |
| 20260830231024 | 74 | 264 | 1.0 | 6.0 | 0.00 | 0.00 | 0.00 | 45 | 1012.8 |
| 20260830230525 | 74 | 344 | 3.0 | 7.0 | 0.00 | 0.00 | 0.00 | 45 | 1012.8 |
| 20260830230046 | 74 | 330 | 2.0 | 7.0 | 0.00 | 0.00 | 0.00 | 47 | 1012.8 |
| 20260830225524 | 74 | 345 | 3.0 | 8.0 | 0.00 | 0.00 | 0.00 | 46 | 1012.8 |
| 20260830225026 | 75 | 15 | 4.0 | 8.0 | 0.00 | 0.00 | 0.00 | 44 | 1012.7 |
| 20260830224556 | 75 | 1 | 2.0 | 6.0 | 0.00 | 0.00 | 0.00 | 48 | 1012.7 |
| 20260830224028 | 75 | 359 | 2.0 | 6.0 | 0.00 | 0.00 | 0.00 | 44 | 1012.6 |
| 20260830223525 | 75 | 343 | 1.0 | 6.0 | 0.00 | 0.00 | 0.00 | 45 | 1012.8 |
| 20260830223047 | 75 | 334 | 2.0 | 6.0 | 0.00 | 0.00 | 0.00 | 43 | 1012.7 |
| 20260830222525 | 75 | 249 | 2.0 | 7.0 | 0.00 | 0.00 | 0.00 | 47 | 1012.6 |
| 20260830222025 | 75 | 258 | 1.0 | 7.0 | 0.00 | 0.00 | 0.00 | 45 | 1012.8 |
| 20260830221549 | 75 | 333 | 3.0 | 7.0 | 0.00 | 0.00 | 0.00 | 44 | 1012.6 |
| 20260830221026 | 74 | 46 | 3.0 | 7.0 | 0.00 | 0.00 | 0.00 | 45 | 1012.8 |
| 20260830220528 | 74 | 273 | 2.0 | 5.0 | 0.00 | 0.00 | 0.00 | 44 | 1012.6 |
| 20260830220103 | 74 | 345 | 3.0 | 7.0 | 0.00 | 0.00 | 0.00 | 49 | 1012.6 |
| 20260830215529 | 74 | 54 | 1.0 | 7.0 | 0.00 | 0.00 | 0.00 | 46 | 1012.6 |
| 20260830215024 | 74 | 110 | 2.0 | 7.0 | 0.00 | 0.00 | 0.00 | 42 | 1012.7 |
| 20260830214547 | 74 | 53 | 3.0 | 9.0 | 0.00 | 0.00 | 0.00 | 43 | 1012.7 |
| 20260830214031 | 74 | 94 | 1.0 | 9.0 | 0.00 | 0.00 | 0.00 | 43 | 1012.8 |
| 20260830213527 | 74 | 166 | 3.0 | 9.0 | 0.00 | 0.00 | 0.00 | 45 | 1012.5 |
| 20260830213101 | 74 | 146 | 2.0 | 7.0 | 0.00 | 0.00 | 0.00 | 44 | 1012.7 |
| 20260830212524 | 74 | 22 | 3.0 | 7.0 | 0.00 | 0.00 | 0.00 | 44 | 1012.9 |
| 20260830212025 | 74 | 142 | 3.0 | 7.0 | 0.00 | 0.00 | 0.00 | 41 | 1013.0 |
| 20260830211556 | 74 | 90 | 1.0 | 4.0 | 0.00 | 0.00 | 0.00 | 47 | 1013.1 |
| 20260830211032 | 73 | 159 | 0.0 | 6.0 | 0.00 | 0.00 | 0.00 | 45 | 1013.1 |
| 20260830210527 | 73 | 0 | 2.0 | 6.0 | 0.00 | 0.00 | 0.00 | 43 | 1013.2 |
| 20260830210056 | 73 | 27 | 3.0 | 6.0 | 0.00 | 0.00 | 0.00 | 43 | 1013.3 |
| 20260830205527 | 73 | 45 | 2.0 | 6.0 | 0.00 | 0.00 | 0.00 | 43 | 1013.2 |
| 20260830205028 | 73 | 0 | 1.0 | 4.0 | 0.00 | 0.00 | 0.00 | 44 | 1013.2 |
| 20260830204600 | 73 | 282 | 2.0 | 4.0 | 0.00 | 0.00 | 0.00 | 43 | 1013.4 |
| 20260830204026 | 72 | 104 | 2.0 | 6.0 | 0.00 | 0.00 | 0.00 | 44 | 1013.5 |
| 20260830203524 | 72 | 284 | 1.0 | 7.0 | 0.00 | 0.00 | 0.00 | 44 | 1013.6 |
| 20260830203056 | 72 | 113 | 3.0 | 7.0 | 0.00 | 0.00 | 0.00 | 45 | 1013.5 |
| 20260830202528 | 72 | 103 | 2.0 | 7.0 | 0.00 | 0.00 | 0.00 | 47 | 1013.3 |
| 20260830202031 | 72 | 122 | 2.0 | 5.0 | 0.00 | 0.00 | 0.00 | 46 | 1013.3 |
| 20260830201547 | 72 | 53 | 2.0 | 7.0 | 0.00 | 0.00 | 0.00 | 44 | 1013.4 |
| 20260830201027 | 71 | 0 | 2.0 | 7.0 | 0.00 | 0.00 | 0.00 | 48 | 1013.5 |
| 20260830200524 | 72 | 61 | 3.0 | 8.0 | 0.00 | 0.00 | 0.00 | 51 | 1013.4 |
| 20260830200046 | 71 | 70 | 4.0 | 8.0 | 0.00 | 0.00 | 0.00 | 46 | 1013.4 |
| 20260830195528 | 71 | 93 | 2.0 | 8.0 | 0.00 | 0.00 | 0.00 | 49 | 1013.4 |
| 20260830195027 | 71 | 96 | 4.0 | 8.0 | 0.00 | 0.00 | 0.00 | 46 | 1013.5 |
| 20260830194557 | 71 | 27 | 2.0 | 6.0 | 0.00 | 0.00 | 0.00 | 45 | 1013.4 |
| 20260830194029 | 71 | 41 | 0.0 | 4.0 | 0.00 | 0.00 | 0.00 | 49 | 1013.3 |
| 20260830193525 | 70 | 112 | 2.0 | 4.0 | 0.00 | 0.00 | 0.00 | 52 | 1013.4 |
| 20260830193049 | 70 | 337 | 1.0 | 4.0 | 0.00 | 0.00 | 0.00 | 47 | 1013.5 |
| 20260830192528 | 69 | 0 | 1.0 | 8.0 | 0.00 | 0.00 | 0.00 | 49 | 1013.5 |
| 20260830192024 | 69 | 88 | 3.0 | 8.0 | 0.00 | 0.00 | 0.00 | 48 | 1013.8 |
| 20260830191545 | 69 | 29 | 2.0 | 9.0 | 0.00 | 0.00 | 0.00 | 52 | 1013.8 |
| 20260830191025 | 68 | 28 | 3.0 | 9.0 | 0.00 | 0.00 | 0.00 | 55 | 1013.9 |
| 20260830190527 | 68 | 50 | 4.0 | 9.0 | 0.00 | 0.00 | 0.00 | 52 | 1013.9 |
| 20260830190052 | 67 | 44 | 4.0 | 8.0 | 0.00 | 0.00 | 0.00 | 57 | 1013.9 |
| 20260830185525 | 66 | 36 | 4.0 | 9.0 | 0.00 | 0.00 | 0.00 | 60 | 1013.9 |
| 20260830185027 | 65 | 324 | 5.0 | 11.0 | 0.00 | 0.00 | 0.00 | 60 | 1013.8 |
| 20260830184553 | 65 | 1 | 3.0 | 12.0 | 0.00 | 0.00 | 0.00 | 64 | 1013.8 |
| 20260830184030 | 64 | 335 | 5.0 | 14.0 | 0.00 | 0.00 | 0.00 | 65 | 1013.7 |
| 20260830183531 | 63 | 313 | 5.0 | 14.0 | 0.00 | 0.00 | 0.00 | 66 | 1013.7 |
| 20260830183054 | 62 | 319 | 5.0 | 15.0 | 0.00 | 0.00 | 0.00 | 68 | 1013.8 |
| 20260830182525 | 63 | 353 | 7.0 | 15.0 | 0.00 | 0.00 | 0.00 | 68 | 1014.1 |
| 20260830182026 | 64 | 238 | 4.0 | 13.0 | 0.00 | 0.00 | 0.00 | 67 | 1014.3 |
| 20260830181547 | 63 | 341 | 5.0 | 15.0 | 0.00 | 0.00 | 0.00 | 68 | 1014.2 |
| 20260830181024 | 62 | 320 | 8.0 | 15.0 | 0.00 | 0.00 | 0.00 | 68 | 1014.3 |
| 20260830180528 | 62 | 315 | 6.0 | 15.0 | 0.00 | 0.00 | 0.00 | 70 | 1015.1 |
| 20260830180048 | 60 | 283 | 3.0 | 8.0 | 0.00 | 0.00 | 0.00 | 76 | 1014.8 |
| 20260830175527 | 58 | 285 | 3.0 | 10.0 | 0.00 | 0.00 | 0.00 | 77 | 1014.8 |
| 20260830175032 | 57 | 334 | 3.0 | 13.0 | 0.00 | 0.00 | 0.00 | 79 | 1014.4 |
| 20260830174547 | 57 | 273 | 4.0 | 13.0 | 0.00 | 0.00 | 0.00 | 80 | 1014.3 |
| 20260830174031 | 57 | 341 | 5.0 | 14.0 | 0.00 | 0.00 | 0.00 | 79 | 1014.3 |
| 20260830173529 | 57 | 359 | 5.0 | 16.0 | 0.00 | 0.00 | 0.00 | 78 | 1015.0 |
| 20260830173051 | 58 | 330 | 7.0 | 16.0 | 0.00 | 0.00 | 0.00 | 76 | 1015.1 |
| 20260830172527 | 59 | 325 | 6.0 | 15.0 | 0.00 | 0.00 | 0.00 | 71 | 1015.2 |
| 20260830172024 | 60 | 309 | 6.0 | 17.0 | 0.00 | 0.00 | 0.00 | 69 | 1015.1 |
| 20260830171548 | 60 | 326 | 8.0 | 21.0 | 0.00 | 0.00 | 0.00 | 68 | 1015.0 |
| 20260830171026 | 61 | 319 | 8.0 | 23.0 | 0.00 | 0.00 | 0.00 | 68 | 1015.0 |
| 20260830170525 | 63 | 323 | 10.0 | 23.0 | 0.00 | 0.00 | 0.00 | 65 | 1015.0 |
| 20260830170048 | 65 | 244 | 10.0 | 23.0 | 0.00 | 0.00 | 0.00 | 60 | 1014.8 |
| 20260830165531 | 67 | 345 | 10.0 | 20.0 | 0.00 | 0.00 | 0.00 | 58 | 1014.7 |
| 20260830165028 | 68 | 360 | 8.0 | 20.0 | 0.00 | 0.00 | 0.00 | 57 | 1014.6 |
| 20260830164549 | 71 | 330 | 4.0 | 16.0 | 0.00 | 0.00 | 0.00 | 58 | 1014.5 |
| 20260830164032 | 71 | 355 | 3.0 | 11.0 | 0.00 | 0.00 | 0.00 | 61 | 1014.4 |
| 20260830163525 | 70 | 227 | 2.0 | 7.0 | 0.00 | 0.00 | 0.00 | 57 | 1013.8 |
| 20260830163051 | 70 | 322 | 2.0 | 7.0 | 0.00 | 0.00 | 0.00 | 62 | 1013.4 |
| 20260830162528 | 70 | 269 | 1.0 | 7.0 | 0.00 | 0.00 | 0.00 | 60 | 1013.1 |
| 20260830162028 | 69 | 259 | 2.0 | 5.0 | 0.00 | 0.00 | 0.00 | 60 | 1013.1 |
| 20260830161601 | 69 | 328 | 2.0 | 7.0 | 0.00 | 0.00 | 0.00 | 59 | 1013.1 |
| 20260830161024 | 69 | 302 | 2.0 | 7.0 | 0.00 | 0.00 | 0.00 | 63 | 1012.9 |
| 20260830160528 | 68 | 343 | 0.0 | 5.0 | 0.00 | 0.00 | 0.00 | 64 | 1013.0 |
| 20260830160044 | 68 | 333 | 1.0 | 4.0 | 0.00 | 0.00 | 0.00 | 62 | 1012.8 |
| 20260830155529 | 68 | 294 | 1.0 | 3.0 | 0.00 | 0.00 | 0.00 | 61 | 1012.8 |
| 20260830155026 | 67 | 304 | 1.0 | 4.0 | 0.00 | 0.00 | 0.00 | 65 | 1012.6 |
| 20260830154552 | 67 | 229 | 0.0 | 5.0 | 0.00 | 0.00 | 0.00 | 66 | 1012.8 |
| 20260830154025 | 66 | 328 | 2.0 | 5.0 | 0.00 | 0.00 | 0.00 | 64 | 1012.8 |
| 20260830153526 | 66 | 328 | 2.0 | 6.0 | 0.00 | 0.00 | 0.00 | 64 | 1012.8 |
| 20260830153059 | 66 | 15 | 3.0 | 6.0 | 0.00 | 0.00 | 0.00 | 65 | 1012.9 |
| 20260830152527 | 66 | 359 | 2.0 | 5.0 | 0.00 | 0.00 | 0.00 | 65 | 1013.0 |
| 20260830152026 | 66 | 262 | 1.0 | 5.0 | 0.00 | 0.00 | 0.00 | 64 | 1012.8 |
| 20260830151554 | 65 | 349 | 1.0 | 3.0 | 0.00 | 0.00 | 0.00 | 66 | 1013.0 |
| 20260830151025 | 65 | 0 | 0.0 | 0.0 | 0.00 | 0.00 | 0.00 | 70 | 1013.0 |
| 20260830150526 | 64 | 0 | 0.0 | 3.0 | 0.00 | 0.00 | 0.00 | 70 | 1012.9 |
| 20260830150047 | 63 | 0 | 0.0 | 4.0 | 0.00 | 0.00 | 0.00 | 71 | 1012.8 |
| 20260830145528 | 63 | 335 | 1.0 | 4.0 | 0.00 | 0.00 | 0.00 | 71 | 1012.9 |
| 20260830145025 | 63 | 316 | 1.0 | 4.0 | 0.00 | 0.00 | 0.00 | 74 | 1012.8 |
| 20260830144545 | 62 | 0 | 2.0 | 4.0 | 0.00 | 0.00 | 0.00 | 75 | 1012.8 |
| 20260830144025 | 62 | 283 | 1.0 | 3.0 | 0.00 | 0.00 | 0.00 | 74 | 1012.9 |
| 20260830143527 | 61 | 0 | 0.0 | 2.0 | 0.00 | 0.00 | 0.00 | 78 | 1012.7 |
| 20260830143103 | 60 | 0 | 0.0 | 4.0 | 0.00 | 0.00 | 0.00 | 77 | 1012.8 |
| 20260830142524 | 59 | 0 | 0.0 | 4.0 | 0.00 | 0.00 | 0.00 | 79 | 1012.9 |
| 20260830142025 | 58 | 181 | 0.0 | 4.0 | 0.00 | 0.00 | 0.00 | 82 | 1013.0 |
| 20260830141545 | 57 | 0 | 0.0 | 3.0 | 0.00 | 0.00 | 0.00 | 84 | 1013.0 |
| 20260830141024 | 57 | 262 | 1.0 | 3.0 | 0.00 | 0.00 | 0.00 | 87 | 1012.8 |
| 20260830140528 | 56 | 255 | 0.0 | 2.0 | 0.00 | 0.00 | 0.00 | 87 | 1013.0 |
| 20260830140047 | 56 | 0 | 0.0 | 2.0 | 0.00 | 0.00 | 0.00 | 86 | 1013.0 |
| 20260830135531 | 56 | 0 | 0.0 | 2.0 | 0.00 | 0.00 | 0.00 | 86 | 1012.9 |
| 20260830135027 | 56 | 0 | 0.0 | 2.0 | 0.00 | 0.00 | 0.00 | 86 | 1012.8 |
| 20260830134553 | 56 | 263 | 0.0 | 2.0 | 0.00 | 0.00 | 0.00 | 87 | 1012.8 |
| 20260830134025 | 56 | 0 | 0.0 | 3.0 | 0.00 | 0.00 | 0.00 | 88 | 1012.9 |
| 20260830133526 | 55 | 263 | 1.0 | 3.0 | 0.00 | 0.00 | 0.00 | 89 | 1013.1 |
| 20260830133053 | 54 | 268 | 1.0 | 3.0 | 0.00 | 0.00 | 0.00 | 91 | 1013.0 |
| 20260830132524 | 54 | 203 | 0.0 | 2.0 | 0.00 | 0.00 | 0.00 | 91 | 1012.9 |
| 20260830132024 | 54 | 203 | 0.0 | 0.0 | 0.00 | 0.00 | 0.00 | 91 | 1012.8 |
| 20260830131546 | 53 | 0 | 0.0 | 0.0 | 0.00 | 0.00 | 0.00 | 90 | 1012.8 |
| 20260830131027 | 53 | 0 | 0.0 | 0.0 | 0.00 | 0.00 | 0.00 | 90 | 1012.9 |
| 20260830130525 | 53 | 0 | 0.0 | 0.0 | 0.00 | 0.00 | 0.00 | 90 | 1012.8 |
| 20260830130104 | 53 | 0 | 0.0 | 0.0 | 0.00 | 0.00 | 0.00 | 89 | 1012.9 |
| 20260830125528 | 53 | 0 | 0.0 | 1.0 | 0.00 | 0.00 | 0.00 | 89 | 1012.8 |
| 20260830125025 | 53 | 0 | 0.0 | 2.0 | 0.00 | 0.00 | 0.00 | 89 | 1012.8 |
| 20260830124550 | 53 | 0 | 0.0 | 3.0 | 0.00 | 0.00 | 0.00 | 89 | 1012.9 |
| 20260830124028 | 53 | 203 | 1.0 | 3.0 | 0.00 | 0.00 | 0.00 | 89 | 1012.8 |
| 20260830123530 | 53 | 0 | 0.0 | 0.0 | 0.00 | 0.00 | 0.00 | 88 | 1012.8 |
| 20260830123048 | 53 | 0 | 0.0 | 0.0 | 0.00 | 0.00 | 0.00 | 88 | 1012.8 |
| 20260830122531 | 53 | 0 | 0.0 | 1.0 | 0.00 | 0.00 | 0.00 | 88 | 1012.8 |
| 20260830122023 | 54 | 0 | 0.0 | 1.0 | 0.00 | 0.00 | 0.00 | 87 | 1012.7 |
| 20260830121545 | 54 | 0 | 0.0 | 1.0 | 0.00 | 0.00 | 0.00 | 87 | 1012.8 |
| 20260830121024 | 54 | 0 | 0.0 | 2.0 | 0.00 | 0.00 | 0.00 | 87 | 1012.7 |
| 20260830120527 | 54 | 0 | 0.0 | 2.0 | 0.00 | 0.00 | 0.00 | 87 | 1012.4 |
| 20260830120054 | 54 | 0 | 0.0 | 1.0 | 0.00 | 0.00 | 0.00 | 87 | 1012.5 |
| 20260830115527 | 55 | 0 | 0.0 | 2.0 | 0.00 | 0.00 | 0.00 | 87 | 1012.6 |
| 20260830115027 | 55 | 203 | 0.0 | 2.0 | 0.00 | 0.00 | 0.00 | 86 | 1012.3 |
| 20260830114607 | 55 | 0 | 0.0 | 3.0 | 0.00 | 0.00 | 0.00 | 86 | 1012.4 |
| 20260830114026 | 55 | 203 | 1.0 | 3.0 | 0.00 | 0.00 | 0.00 | 86 | 1012.4 |
| 20260830113527 | 55 | 0 | 0.0 | 0.0 | 0.00 | 0.00 | 0.00 | 86 | 1012.3 |
| 20260830113052 | 55 | 0 | 0.0 | 0.0 | 0.00 | 0.00 | 0.00 | 85 | 1012.2 |
| 20260830112527 | 56 | 0 | 0.0 | 0.0 | 0.00 | 0.00 | 0.00 | 85 | 1012.1 |
| 20260830112025 | 56 | 0 | 0.0 | 0.0 | 0.00 | 0.00 | 0.00 | 85 | 1011.9 |
| 20260830111546 | 56 | 0 | 0.0 | 0.0 | 0.00 | 0.00 | 0.00 | 85 | 1011.8 |
| 20260830111028 | 56 | 0 | 0.0 | 0.0 | 0.00 | 0.00 | 0.00 | 84 | 1011.7 |
| 20260830110524 | 57 | 0 | 0.0 | 0.0 | 0.00 | 0.00 | 0.00 | 84 | 1011.7 |
| 20260830110049 | 57 | 0 | 0.0 | 0.0 | 0.00 | 0.00 | 0.00 | 83 | 1011.6 |
| 20260830105527 | 57 | 0 | 0.0 | 0.0 | 0.00 | 0.00 | 0.00 | 83 | 1011.7 |
| 20260830105027 | 57 | 0 | 0.0 | 2.0 | 0.00 | 0.00 | 0.00 | 83 | 1011.6 |
| 20260830104557 | 57 | 0 | 0.0 | 2.0 | 0.00 | 0.00 | 0.00 | 83 | 1011.6 |
| 20260830104027 | 57 | 26 | 1.0 | 4.0 | 0.00 | 0.00 | 0.00 | 83 | 1011.6 |
| 20260830103525 | 57 | 26 | 1.0 | 4.0 | 0.00 | 0.00 | 0.00 | 82 | 1011.6 |
| 20260830103051 | 58 | 27 | 2.0 | 5.0 | 0.00 | 0.00 | 0.00 | 82 | 1011.6 |
| 20260830102531 | 58 | 27 | 2.0 | 5.0 | 0.00 | 0.00 | 0.00 | 82 | 1011.7 |
| 20260830102027 | 58 | 52 | 1.0 | 3.0 | 0.00 | 0.00 | 0.00 | 83 | 1011.6 |
| 20260830101552 | 58 | 42 | 1.0 | 3.0 | 0.00 | 0.00 | 0.00 | 82 | 1011.6 |
| 20260830101029 | 58 | 86 | 0.0 | 2.0 | 0.00 | 0.00 | 0.00 | 82 | 1011.9 |
| 20260830100524 | 58 | 0 | 0.0 | 2.0 | 0.00 | 0.00 | 0.00 | 81 | 1012.1 |
| 20260830100049 | 58 | 86 | 0.0 | 3.0 | 0.00 | 0.00 | 0.00 | 81 | 1012.2 |
| 20260830095527 | 58 | 0 | 1.0 | 3.0 | 0.00 | 0.00 | 0.00 | 81 | 1012.4 |
| 20260830095025 | 58 | 0 | 1.0 | 3.0 | 0.00 | 0.00 | 0.00 | 81 | 1012.7 |
| 20260830094550 | 58 | 303 | 0.0 | 3.0 | 0.00 | 0.00 | 0.00 | 81 | 1012.8 |
| 20260830094027 | 58 | 299 | 0.0 | 8.0 | 0.00 | 0.00 | 0.00 | 82 | 1013.0 |
| 20260830093527 | 58 | 251 | 4.0 | 8.0 | 0.00 | 0.00 | 0.00 | 82 | 1013.6 |
| 20260830093045 | 58 | 252 | 3.0 | 6.0 | 0.00 | 0.00 | 0.00 | 83 | 1013.5 |
| 20260830092529 | 58 | 273 | 1.0 | 3.0 | 0.00 | 0.00 | 0.00 | 82 | 1012.7 |
| 20260830092027 | 58 | 273 | 0.0 | 2.0 | 0.00 | 0.00 | 0.00 | 82 | 1012.5 |
| 20260830091552 | 58 | 0 | 0.0 | 1.0 | 0.00 | 0.00 | 0.00 | 82 | 1012.4 |
| 20260830091029 | 58 | 0 | 0.0 | 2.0 | 0.00 | 0.00 | 0.00 | 82 | 1012.3 |
| 20260830090527 | 58 | 0 | 0.0 | 2.0 | 0.00 | 0.00 | 0.00 | 82 | 1012.4 |
| 20260830090053 | 58 | 273 | 1.0 | 2.0 | 0.00 | 0.00 | 0.00 | 82 | 1012.4 |
| 20260830085533 | 58 | 0 | 0.0 | 2.0 | 0.00 | 0.00 | 0.00 | 82 | 1012.4 |
| 20260830085030 | 58 | 273 | 1.0 | 2.0 | 0.00 | 0.00 | 0.00 | 81 | 1012.4 |
| 20260830084547 | 59 | 0 | 0.0 | 2.0 | 0.00 | 0.00 | 0.00 | 81 | 1012.3 |
| 20260830084027 | 59 | 0 | 0.0 | 4.0 | 0.00 | 0.00 | 0.00 | 81 | 1012.3 |
| 20260830083529 | 58 | 0 | 1.0 | 4.0 | 0.00 | 0.00 | 0.00 | 81 | 1012.5 |
| 20260830083059 | 58 | 0 | 0.0 | 0.0 | 0.00 | 0.00 | 0.00 | 81 | 1012.4 |
| 20260830082526 | 58 | 0 | 0.0 | 0.0 | 0.00 | 0.00 | 0.00 | 81 | 1012.2 |
| 20260830082027 | 58 | 0 | 0.0 | 0.0 | 0.00 | 0.00 | 0.00 | 81 | 1012.1 |
| 20260830081552 | 58 | 0 | 0.0 | 0.0 | 0.00 | 0.00 | 0.00 | 82 | 1012.1 |
| 20260830081027 | 58 | 0 | 0.0 | 1.0 | 0.00 | 0.00 | 0.00 | 81 | 1012.0 |
| 20260830080528 | 58 | 0 | 0.0 | 2.0 | 0.00 | 0.00 | 0.00 | 81 | 1012.0 |
| 20260830080046 | 58 | 0 | 0.0 | 3.0 | 0.00 | 0.00 | 0.00 | 81 | 1012.0 |
| 20260830075532 | 58 | 222 | 1.0 | 5.0 | 0.00 | 0.00 | 0.00 | 81 | 1012.1 |
| 20260830075028 | 59 | 0 | 1.0 | 5.0 | 0.00 | 0.00 | 0.00 | 80 | 1012.1 |
| 20260830074605 | 59 | 210 | 3.0 | 5.0 | 0.00 | 0.00 | 0.00 | 80 | 1012.2 |
| 20260830074028 | 59 | 179 | 2.0 | 5.0 | 0.00 | 0.00 | 0.00 | 79 | 1012.1 |
| 20260830073528 | 59 | 252 | 0.0 | 4.0 | 0.00 | 0.00 | 0.00 | 79 | 1012.2 |
| 20260830073051 | 59 | 252 | 1.0 | 4.0 | 0.00 | 0.00 | 0.00 | 79 | 1012.3 |
| 20260830072529 | 59 | 268 | 2.0 | 4.0 | 0.00 | 0.00 | 0.00 | 80 | 1012.2 |
| 20260830072028 | 59 | 257 | 2.0 | 4.0 | 0.00 | 0.00 | 0.00 | 81 | 1012.2 |
| 20260830071550 | 59 | 229 | 1.0 | 3.0 | 0.00 | 0.00 | 0.00 | 81 | 1012.2 |
| 20260830071028 | 59 | 229 | 0.0 | 1.0 | 0.00 | 0.00 | 0.00 | 81 | 1012.2 |
| 20260830070527 | 59 | 0 | 0.0 | 1.0 | 0.00 | 0.00 | 0.00 | 80 | 1012.2 |
| 20260830070050 | 59 | 0 | 0.0 | 1.0 | 0.00 | 0.00 | 0.00 | 80 | 1012.3 |
| 20260830065526 | 60 | 228 | 0.0 | 0.0 | 0.00 | 0.00 | 0.00 | 79 | 1012.5 |
| 20260830065025 | 60 | 0 | 0.0 | 0.0 | 0.00 | 0.00 | 0.00 | 78 | 1012.5 |
| 20260830064557 | 60 | 0 | 0.0 | 0.0 | 0.00 | 0.00 | 0.00 | 78 | 1012.5 |
| 20260830064026 | 61 | 0 | 0.0 | 0.0 | 0.00 | 0.00 | 0.00 | 78 | 1012.5 |
| 20260830063527 | 61 | 0 | 0.0 | 0.0 | 0.00 | 0.00 | 0.00 | 77 | 1012.5 |
| 20260830063050 | 61 | 0 | 0.0 | 1.0 | 0.00 | 0.00 | 0.00 | 77 | 1012.7 |
| 20260830062527 | 61 | 0 | 0.0 | 2.0 | 0.00 | 0.00 | 0.00 | 77 | 1012.6 |
| 20260830062028 | 61 | 0 | 0.0 | 2.0 | 0.00 | 0.00 | 0.00 | 77 | 1012.5 |
| 20260830061546 | 61 | 0 | 0.0 | 2.0 | 0.00 | 0.00 | 0.00 | 77 | 1012.6 |
| 20260830061028 | 62 | 228 | 0.0 | 2.0 | 0.00 | 0.00 | 0.00 | 77 | 1012.8 |
| 20260830060527 | 62 | 0 | 0.0 | 1.0 | 0.00 | 0.00 | 0.00 | 77 | 1013.0 |
| 20260830060048 | 62 | 0 | 0.0 | 1.0 | 0.00 | 0.00 | 0.00 | 77 | 1013.2 |
| 20260830055524 | 62 | 0 | 0.0 | 2.0 | 0.00 | 0.00 | 0.00 | 78 | 1013.1 |
| 20260830055023 | 62 | 0 | 0.0 | 3.0 | 0.00 | 0.00 | 0.00 | 78 | 1012.9 |
| 20260830054546 | 62 | 251 | 0.0 | 3.0 | 0.00 | 0.00 | 0.00 | 78 | 1013.0 |
| 20260830054027 | 63 | 268 | 1.0 | 4.0 | 0.00 | 0.00 | 0.00 | 78 | 1012.6 |
| 20260830053526 | 63 | 81 | 0.0 | 4.0 | 0.00 | 0.00 | 0.00 | 77 | 1012.6 |
| 20260830053052 | 63 | 81 | 2.0 | 4.0 | 0.00 | 0.00 | 0.00 | 77 | 1012.8 |
| 20260830052526 | 63 | 295 | 0.0 | 2.0 | 0.00 | 0.00 | 0.00 | 78 | 1012.8 |
| 20260830052031 | 63 | 295 | 1.0 | 3.0 | 0.00 | 0.00 | 0.00 | 78 | 1012.5 |
| 20260830051555 | 63 | 0 | 0.0 | 3.0 | 0.00 | 0.00 | 0.00 | 78 | 1012.4 |
| 20260830051024 | 63 | 0 | 0.0 | 0.0 | 0.00 | 0.00 | 0.00 | 77 | 1012.6 |
| 20260830050525 | 63 | 0 | 0.0 | 1.0 | 0.00 | 0.00 | 0.00 | 76 | 1012.8 |
| 20260830050059 | 64 | 0 | 0.0 | 2.0 | 0.00 | 0.00 | 0.00 | 75 | 1012.8 |
| 20260830045525 | 64 | 0 | 0.0 | 2.0 | 0.00 | 0.00 | 0.00 | 74 | 1012.8 |
| 20260830045024 | 64 | 0 | 0.0 | 0.0 | 0.00 | 0.00 | 0.00 | 74 | 1012.7 |
| 20260830044553 | 65 | 0 | 0.0 | 1.0 | 0.00 | 0.00 | 0.00 | 73 | 1012.5 |
| 20260830044024 | 65 | 0 | 0.0 | 2.0 | 0.00 | 0.00 | 0.00 | 72 | 1012.5 |
| 20260830043523 | 65 | 0 | 0.0 | 3.0 | 0.00 | 0.00 | 0.00 | 72 | 1012.5 |
| 20260830043050 | 65 | 0 | 0.0 | 7.0 | 0.00 | 0.00 | 0.00 | 72 | 1012.5 |
| 20260830042530 | 65 | 0 | 1.0 | 7.0 | 0.00 | 0.00 | 0.00 | 72 | 1012.5 |
| 20260830042025 | 65 | 215 | 2.0 | 7.0 | 0.00 | 0.00 | 0.00 | 72 | 1012.5 |
| 20260830041600 | 65 | 218 | 2.0 | 6.0 | 0.00 | 0.00 | 0.00 | 72 | 1012.5 |
| 20260830041028 | 65 | 141 | 3.0 | 6.0 | 0.00 | 0.00 | 0.00 | 73 | 1012.6 |
| 20260830040524 | 66 | 187 | 2.0 | 5.0 | 0.00 | 0.00 | 0.00 | 73 | 1012.7 |
| 20260830040116 | 66 | 183 | 3.0 | 5.0 | 0.00 | 0.00 | 0.00 | 72 | 1012.6 |
| 20260830035527 | 66 | 165 | 2.0 | 4.0 | 0.00 | 0.00 | 0.00 | 72 | 1012.7 |
| 20260830035024 | 66 | 122 | 2.0 | 5.0 | 0.00 | 0.00 | 0.00 | 72 | 1012.6 |
| 20260830034548 | 66 | 157 | 1.0 | 5.0 | 0.00 | 0.00 | 0.00 | 73 | 1012.5 |
| 20260830034026 | 66 | 118 | 0.0 | 3.0 | 0.00 | 0.00 | 0.00 | 73 | 1012.4 |
| 20260830033526 | 66 | 118 | 0.0 | 3.0 | 0.00 | 0.00 | 0.00 | 74 | 1012.6 |
| 20260830033052 | 66 | 111 | 1.0 | 2.0 | 0.00 | 0.00 | 0.00 | 74 | 1012.5 |
| 20260830032525 | 66 | 78 | 0.0 | 3.0 | 0.00 | 0.00 | 0.00 | 74 | 1012.5 |
| 20260830032024 | 66 | 349 | 1.0 | 4.0 | 0.00 | 0.00 | 0.00 | 74 | 1012.4 |
| 20260830031603 | 66 | 321 | 2.0 | 4.0 | 0.00 | 0.00 | 0.00 | 74 | 1012.4 |
| 20260830031028 | 67 | 319 | 2.0 | 3.0 | 0.00 | 0.00 | 0.00 | 73 | 1012.3 |